OBJECT E, 64052

Orbit data source: Space-Track

You're viewing an Uncataloged Satellite

Recently launched and/or uncataloged satellites may have evolving metadata. Metadata may include but not limited to: Owner, Maufacturer, Bus, Motor, and Mission.

OBJECT E, 64052 is a satellite owned by Youdian Daxue (CN) in SSO that was launched on Sat, 17 May 2025 UTC via a ZHUQUE-2E launch vehicle from the Jiuquan Satellite Launch Center, China (JSC). Unknown objects in Earth's orbit typically refer to objects detected orbiting the Earth but have not yet been identified or cataloged. These objects could be anything from previously untracked satellites, spent rocket stages, debris from satellite collisions, or even natural meteoroids temporarily captured by Earth's gravity.

Loading next visibility...
Identifier
64052, 2025-103E
Orbit
SSO
Country
Flag of CNCN / PRC
Related business
Flag of CNBeijing University of Posts and Telecommunications (CN)
Manufacturer
Changsha Tianyi
Mission
Operational Amateur Technology
Bus & Motor
TY, Unknown motor
Mass
~50 kg wet, ~50 kg dry
Launch date (UTC)
2025-05-17 (1 year ago)
Launch vehicle
ZHUQUE-2E
Launch site
Jiuquan Satellite Launch Center, China (JSC)
Object type
Unknown
Shape & HBR
Box + 2 Pan, 0.5 m
Radar Cross Section
0.255 m², Medium (>0.1 m² and < 1m²)

Expand to show TLE details & history
Last TLE update: 5 hours ago

TLE from 5 hours ago
0 OBJECT E
1 64052U 25103E   26207.60125024  .00010772  00000-0  43975-3 0  9993
2 64052  97.3732 279.4189 0003648  61.0038 299.1565 15.24575192 66111
Epoch: 2026-07-26T14:25Z
TLE epoch observation values (Epoch: 2026-07-26T14:25:48.020Z)
Latitude
-0.00004°
Longitude
118.67198°
Altitude
493.938 km
Speed
7.618 km/s
True Right ascension
18h 37m 40s
True Declination
0° 00' 00"
Sunlit
Object was in full shadow at epoch
Visualization orbit readout
Latitude
Unknown
Longitude
Unknown
Altitude
Unknown
Speed
Unknown
Apparent Right ascension
Unknown
Apparent Declination
Unknown
Sunlit
N/A
Visualization observer readout
Local Sidereal Time
08:39:58
Azimuth
Unknown
Elevation
Unknown
Doppler factor
Unknown
Orbital elements
Apogee altitude
491.525 km
Perigee altitude
486.515 km
Semi-major axis
6,867.157 km
Eccentricity
0.00036
Inclination
97.3732°
RAAN
279.4189°
Arg. of periapsis
61.0038°
True anomaly
299.11999°
Mean anomaly
299.1565°
Eccentric anomaly
299.13824°
Mean motion
3.81397 °/min
Orbital period
94.39 mins
BSTAR
0.00043975
Loading maneuver chart data...
Computing Atmospheric mass density...
Loading historical data...
Loading historical data...
Loading historical data...
Loading historical data...
Loading historical data...
Loading historical data...
Loading historical data...

Documentation

Showing up to 5 results
|